Weather Roundup
Issued by NWS Chicago, IL

Home | Current Version | Previous Version | Graphics & Text | Print | Product List | Glossary On
Versions: 1 2 3 4 5 6 7 8 9 10 11 12 13 14 15 16 17 18 19 20 21 22 23 24 25 26 27 28 29 30 31 32 33 34 35 36 37 38 39 40 41 42 43 44 45 46 47 48 49 50
000
NZUS59 KLOT 280902
HRRLOT

CHICAGO AREA WEATHER ROUNDUP
NATIONAL WEATHER SERVICE CHICAGO/ROMEOVILLE IL
400 AM CDT TUE APR 28 2015

NOTE: "FAIR" INDICATES FEW OR NO CLOUDS BELOW 12,000 FEET WITH NO
SIGNIFICANT WEATHER AND/OR OBSTRUCTIONS TO VISIBILITY.

* THESE STATIONS ARE NOT UNDER NWS QUALITY CONTROL. THEY ALSO MAY NOT
  REPORT WEATHER SUCH AS PRECIPITATION OR FOG.

ILZ005-006-012>014-019>023-281000-
NORTHEAST ILLINOIS

CITY           SKY/WX    TMP DP  RH WIND       PRES   REMARKS
OHARE          CLEAR     37  33  85 CALM      30.13S
MIDWAY         CLEAR     41  34  76 NW3       30.14S
AURORA         CLEAR     34  29  82 CALM      30.15R
WAUKEGAN       CLEAR     32  30  92 CALM      30.14R
DUPAGE AIRPORT CLEAR     35  32  88 CALM      30.14R
WHEELING       CLEAR     36  31  82 CALM      30.15F
NORTHERLY IS     N/A     43  34  70 CALM        N/A
$$

WIZ051-052-058>065-066-070>072-281000-
SOUTHEAST WISCONSIN

CITY           SKY/WX    TMP DP  RH WIND       PRES   REMARKS
MILWAUKEE      CLEAR     40  31  70 N7        30.15R
KENOSHA*       CLEAR     39  32  76 N5        30.14R
RACINE*        CLEAR     39  32  76 N9        30.15R
$$

INZ001>003-010>013-019-020-281000-
NORTHWEST INDIANA

CITY           SKY/WX    TMP DP  RH WIND       PRES   REMARKS
GARY*          NOT AVBL
MICHIGAN CITY* NOT AVBL
RENSSELAER*    NOT AVBL
$$

LMZ740>746-281000-
SOUTHERN LAKE MICHIGAN

STATION/POSITION TIME  SKY/WX   TEMP WIND        PRES    VSBY
                                AIR  DIR/SP/G
                 (UTC)          (F)  (DEG/KT/KT) (MB)    (MI)
HARRISON CRIB    0800            42  330/  7/  8   N/A
BURNHAM HARBOR   0900            44   CALM  /  5   N/A
CALUMET HARBOR   0800            41  300/  1/  2   N/A
BURNS HARBOR     0800            42  330/  4/  6 1020.7S
MICHIGAN CITY    0800            40  290/  5/  5   N/A
$$

ABBREVIATIONS USED IN REMARKS
   TC - TEMPERATURE IN CELSIUS
  WCI - WIND CHILL INDEX
   HX - HEAT INDEX
  VSB - VISIBILITY
$$



USA.gov is the U.S. government's official web portal to all federal, state and local government web resources and services.